User: anonymous   Login
Location: Unspecified
(0.0000°N, 0.0000°E)
Time: 20:04:42
(UTC+00:00)
Language:

TBA - TO BE ASSIGNED - Orbit

View from above orbital plane
View from above orbital plane
View from above satellite
View from above satellite

Ground track
Ground track

The orbit is defined by the following mean orbital elements,

1 68685U          26145.62715975 +.00000000 +00000-0 +13716-2 0 00006
2 68685  97.2863  18.3391 0001797  93.1329 267.0142 15.75261709    01
Epoch (UTC): 25 May 2026 15:03:06
Eccentricity: 0.0001797
inclination: 97.2863°
perigee height: 343 km
apogee height: 345 km
right ascension of ascending node: 18.3391°
argument of perigee: 93.1329°
revolutions per day: 15.75261709
mean anomaly at epoch: 267.0142°

The dashed part of the orbit path shows where the satellite is in the earth's shadow,  

DLR